Home   Weather   Owen Sound   Past weeks

Flag for Canada Past Weather in Owen Sound, Ontario, Canada — Yesterday and Last 2 Weeks

Now
63 °F

Passing clouds.


Feels Like: 63 °F
Forecast: 47 / 74 °F
Wind: 9 mph from Southeast

Location: Wiarton

Current Time: Apr 26, 2017 at 11:33:18 pm

Latest Report: Apr 26, 2017 at 10:00 pm


Visibility: 15 mi

Pressure: 29.61 "Hg

Humidity: 77%

Dew Point: 55 °F

Location of Owen SoundLocation

Past Weather in Owen Sound — Graph

°F

Owen Sound Temperature Yesterday

Maximum temperature yesterday: 57 °F (at 7:00 pm)
Minimum temperature yesterday: 41 °F (at 7:00 am)
Average temperature yesterday: 51 °F

High & Low Weather Summary for the Past Weeks

 TemperatureHumidityPressure
High73 °F (Apr 26, 5:00 pm)100% (Apr 11, 9:00 pm)30.54 "Hg (Apr 11, 9:00 pm)
Low27 °F (Apr 18, 4:00 am)31% (Apr 14, 4:00 pm)29.58 "Hg (Apr 26, 5:00 pm)
Average45 °F81%30.07 "Hg
* Reported Apr 11 9:00 pm — Apr 26 9:00 pm, Owen Sound, Weather by CustomWeather, © 2017

Note: Actual official high and low records may vary slightly from our data, if they occured in-between our weather recording intervals... More about our weather records

Advertising

Owen Sound Weather History for the Previous 24 Hours

Scroll right to see more
 ConditionsComfort  
Time TempWeatherWind HumidityBarometerVisibility
9:00 pm
Wed, Apr 26
64 °FPassing clouds.8 mph73%29.61 "Hg15 mi
8:00 pm66 °FOvercast.13 mph68%29.61 "Hg15 mi
7:00 pm68 °FHigh level clouds.14 mph64%29.61 "Hg15 mi
6:00 pm72 °FScattered clouds.14 mph61%29.61 "Hg15 mi
5:00 pm73 °FScattered clouds.16 mph57%29.58 "Hg15 mi
4:00 pm72 °FScattered clouds.16 mph57%29.60 "Hg15 mi
3:00 pm70 °FBroken clouds.13 mph64%29.64 "Hg15 mi
2:00 pm68 °FScattered clouds.12 mph69%29.68 "Hg15 mi
1:00 pm68 °FScattered clouds.15 mph64%29.70 "Hg15 mi
12:00 pm66 °FScattered clouds.10 mph68%29.74 "Hg15 mi
11:00 am59 °FBroken clouds.3 mph77%29.75 "Hg15 mi
10:00 am52 °FScattered clouds.2 mph94%29.76 "Hg15 mi
9:00 am54 °FScattered clouds.3 mph100%29.77 "Hg15 mi
8:00 am46 °FScattered clouds.2 mph100%29.77 "Hg12 mi
7:00 am43 °FFog.No wind100%29.77 "Hg10 mi
6:00 am45 °FPassing clouds.No wind100%29.78 "Hg8 mi
5:00 am45 °FPassing clouds.No wind100%29.78 "Hg10 mi
4:00 am45 °FPassing clouds.2 mph100%29.78 "Hg10 mi
3:00 am48 °FPassing clouds.3 mph100%29.79 "Hg15 mi
2:00 am48 °FPassing clouds.No wind100%29.81 "Hg10 mi
1:00 am52 °FPassing clouds.3 mph100%29.81 "Hg10 mi
12:00 am46 °FPassing clouds.No wind100%29.80 "Hg10 mi
11:00 pm
Tue, Apr 25
52 °FPassing clouds.7 mph100%29.81 "Hg15 mi
Weather by CustomWeather, © 2017

See weather overviewHow to use our weather pages